Flag for Brazil Weather past 2 weeks in Santos, São Paulo, Brazil

Now
63 °F

Fog.


Feels Like: 63 °F
Forecast: N/A
Wind: 7 mph from East

Location: Sao Paulo Airport

Current Time: Jul 2, 2015 at 8:57:41 PM

Latest Report: Jul 2, 2015 at 8:00 PM


Visibility: 3 mi

Pressure: 30.09 "Hg

Humidity: 88%

Dew point: 59 °F

Location of SantosLocation

Historic Weather in Santos — Graph

°F

Santos temperature yesterday

Maximum temperature yesterday: 68 °F (at 12:00 AM)
Minimum temperature yesterday: 61 °F (at 10:00 PM)
Average temperature yesterday: 65 °F

Past Weeks' High & Low Weather Summary

 TemperatureHumidityPressure
High81 °F (Jun 18, 1:00 PM)94% (Jun 19, 12:00 PM)30.54 "Hg (Jun 19, 12:00 PM)
Low54 °F (Jun 20, 4:00 AM)34% (Jun 22, 1:00 PM)30.04 "Hg (Jun 18, 4:00 AM)
Average62 °F74%30.30 "Hg
* Reported Jun 17 7:00 PM — Jul 2 7:00 PM, Santos, Weather by CustomWeather, © 2015

Note: Actual official high and low records may vary slightly from our data, if they occured in-between our weather recording intervals... More about our weather records

Advertising

Santos weather history for previous 24 hours

 ConditionsComfort  
Time TempWeatherWind HumidityBarometerVisibility
7:00 PM
Thu, Jul 2
63 °FFog.5 mph88%30.09 "Hg3 mi
6:00 PM64 °FFog.6 mph83%30.09 "Hg2 mi
5:00 PM64 °FFog.7 mph83%30.09 "Hg2 mi
4:00 PM64 °FBroken clouds.9 mph83%30.09 "Hg2 mi
3:00 PM68 °FScattered clouds.6 mph69%30.12 "HgN/A
2:00 PM66 °FPartly sunny.6 mph73%30.12 "HgN/A
1:00 PM66 °FPartly sunny.7 mph73%30.18 "HgN/A
12:00 PM66 °FMostly cloudy.8 mph73%30.21 "HgN/A
11:00 AM66 °FPartly sunny.8 mph73%30.24 "HgN/A
10:00 AM64 °FPartly sunny.8 mph78%30.21 "HgN/A
9:00 AM63 °FOvercast.6 mph77%30.24 "HgN/A
8:00 AM61 °FOvercast.6 mph77%30.21 "HgN/A
7:00 AM61 °FOvercast.7 mph77%30.18 "HgN/A
6:00 AM59 °FMostly cloudy.5 mph88%30.18 "Hg6 mi
5:01 AM59 °FFog.6 mph94%30.15 "Hg2 mi
4:00 AM61 °FMostly cloudy.6 mph83%30.18 "HgN/A
3:00 AM61 °FOvercast.5 mph83%30.18 "HgN/A
2:00 AM61 °FLight rain. Mostly cloudy.6 mph83%30.21 "HgN/A
1:00 AM61 °FMostly cloudy.7 mph83%30.21 "HgN/A
12:00 AM61 °FLow clouds.8 mph83%30.21 "HgN/A
11:00 PM
Wed, Jul 1
61 °FMostly cloudy.9 mph88%30.21 "Hg4 mi
10:00 PM61 °FLight rain. Overcast.8 mph88%30.21 "Hg6 mi
9:00 PM63 °FLight rain. Mostly cloudy.8 mph83%30.21 "Hg6 mi
8:00 PM64 °FOvercast.5 mph83%30.21 "HgN/A
Weather by CustomWeather, © 2015

See weather overviewHow to use our weather pages